{"data":{"norad_id":47604,"intl_designator":"2021-009BJ","name":"STARLINK-2021","alt_names":[],"object_type":"PAYLOAD","status":"ACTIVE","operator":null,"country":"US","launch_date":"2021-02-04","launch_site_code":"AFETR","launch_vehicle":null,"mission":null,"orbit_class":"UNKNOWN","rcs_meters":null,"size_class":null,"mass_kg":null,"dimensions":null,"purposes":["comms"],"wikipedia_slug":null,"has_3d_model":false,"image_url":null,"decayed_at":null,"tle_current":{"epoch":"2026-07-02T23:12:28.346400Z","epoch_age_seconds":6898763,"freshness":"OLD","line1":"1 47604U 21009BJ  26183.96699475  .11789621  12510-4  22776-3 0  9993","line2":"2 47604  53.0149 115.2537 0007253 249.4508 110.5763 16.46815220299691","mean_motion":16.4681522,"eccentricity":0.0007253,"inclination_deg":53.0149,"raan_deg":115.2537,"arg_perigee_deg":249.4508,"mean_anomaly_deg":110.5763,"bstar":0.00022776,"rev_number":29969,"period_min":87.441504214419,"perigee_km":143.00241653705,"apogee_km":152.46884737697,"semimajor_km":6525.872631957,"source":"CELESTRAK","updated_at":"2026-07-03T09:00:34.692874Z"}}}